Year,Month,Day,Hour,Minute,Value (Times are PST for barometer in hPa)
2017,04,06,00,09,1005.40
2017,04,06,00,11,1005.40
2017,04,06,00,12,1005.40
2017,04,06,00,13,1005.40
2017,04,06,00,14,1005.40
2017,04,06,00,16,1005.40
2017,04,06,00,17,1005.40
2017,04,06,00,18,1005.40
2017,04,06,00,19,1005.40
2017,04,06,00,21,1005.40
2017,04,06,00,22,1005.40
2017,04,06,00,23,1005.40
2017,04,06,02,09,1003.80
2017,04,06,02,11,1003.80
2017,04,06,02,12,1003.70
2017,04,06,02,13,1003.60
2017,04,06,02,14,1003.50
2017,04,06,02,16,1003.40
2017,04,06,02,17,1003.30
2017,04,06,02,18,1003.30
2017,04,06,02,19,1003.30
2017,04,06,02,21,1003.30
2017,04,06,02,22,1003.30
2017,04,06,02,23,1003.30
2017,04,06,02,24,1003.30
2017,04,06,02,26,1003.30
2017,04,06,02,27,1003.30
2017,04,06,02,28,1003.30
2017,04,06,02,29,1003.30
2017,04,06,02,31,1003.30
2017,04,06,02,32,1003.30
2017,04,06,02,33,1003.30
2017,04,06,02,34,1003.30
2017,04,06,02,36,1003.20
2017,04,06,02,37,1003.30
2017,04,06,02,38,1003.20
2017,04,06,02,39,1003.30
2017,04,06,02,41,1003.30
2017,04,06,02,42,1003.30
2017,04,06,02,43,1003.20
2017,04,06,02,44,1003.20
2017,04,06,02,45,1003.10
2017,04,06,02,46,1003.10
2017,04,06,02,47,1003.10
2017,04,06,02,48,1003.10
2017,04,06,02,49,1003.00
2017,04,06,02,50,1002.90
2017,04,06,02,51,1002.90
2017,04,06,02,52,1002.80
2017,04,06,02,53,1002.90
2017,04,06,02,54,1002.90
2017,04,06,02,55,1002.80
2017,04,06,02,56,1002.80
2017,04,06,02,57,1002.80
2017,04,06,02,58,1002.80
2017,04,06,02,59,1002.80
2017,04,06,03,00,1002.80
2017,04,06,03,01,1002.80
2017,04,06,03,02,1002.80
2017,04,06,03,03,1002.80
2017,04,06,03,04,1002.80
2017,04,06,03,05,1002.80
2017,04,06,03,06,1002.80
2017,04,06,03,07,1002.80
2017,04,06,03,08,1002.80
2017,04,06,03,09,1002.80
2017,04,06,03,10,1002.70
2017,04,06,03,11,1002.70
2017,04,06,03,12,1002.70
2017,04,06,03,13,1002.70
2017,04,06,03,14,1002.70
2017,04,06,03,15,1002.70
2017,04,06,03,16,1002.70
2017,04,06,03,17,1002.60
2017,04,06,03,18,1002.60
2017,04,06,03,19,1002.50
2017,04,06,03,20,1002.50
2017,04,06,03,21,1002.50
2017,04,06,03,22,1002.50
2017,04,06,03,23,1002.50
2017,04,06,03,24,1002.50
2017,04,06,03,25,1002.50
2017,04,06,03,26,1002.50
2017,04,06,03,27,1002.50
2017,04,06,03,28,1002.50
2017,04,06,03,29,1002.50
2017,04,06,03,30,1002.40
2017,04,06,03,31,1002.40
2017,04,06,03,32,1002.40
2017,04,06,03,33,1002.40
2017,04,06,03,34,1002.30
2017,04,06,03,35,1002.30
2017,04,06,03,36,1002.30
2017,04,06,03,37,1002.30
2017,04,06,03,38,1002.30
2017,04,06,03,39,1002.30
2017,04,06,03,40,1002.30
2017,04,06,03,41,1002.30
2017,04,06,03,42,1002.30
2017,04,06,03,43,1002.30
2017,04,06,03,44,1002.30
2017,04,06,03,45,1002.30
2017,04,06,03,46,1002.30
2017,04,06,03,47,1002.20
2017,04,06,03,48,1002.20
2017,04,06,03,49,1002.20
2017,04,06,03,50,1002.10
2017,04,06,03,51,1002.10
2017,04,06,03,52,1002.10
2017,04,06,03,53,1002.00
2017,04,06,03,54,1002.00
2017,04,06,03,55,1001.90
2017,04,06,03,56,1001.90
2017,04,06,03,57,1001.90
2017,04,06,03,58,1001.90
2017,04,06,03,59,1001.90
2017,04,06,04,00,1002.00
2017,04,06,04,01,1002.10
2017,04,06,04,03,1002.00
2017,04,06,04,04,1001.90
2017,04,06,04,06,1001.80
2017,04,06,04,07,1001.80
2017,04,06,04,08,1001.80
2017,04,06,04,09,1001.80
2017,04,06,04,11,1001.80
2017,04,06,04,12,1001.80
2017,04,06,04,13,1001.70
2017,04,06,04,14,1001.70
2017,04,06,04,16,1001.60
2017,04,06,04,17,1001.60
2017,04,06,04,18,1001.50
2017,04,06,04,19,1001.40
2017,04,06,04,21,1001.30
2017,04,06,04,22,1001.30
2017,04,06,04,23,1001.30
2017,04,06,04,24,1001.30
2017,04,06,04,26,1001.30
2017,04,06,04,27,1001.30
2017,04,06,04,28,1001.30
2017,04,06,04,29,1001.30
2017,04,06,04,31,1001.30
2017,04,06,04,32,1001.30
2017,04,06,04,33,1001.30
2017,04,06,04,34,1001.30
2017,04,06,04,36,1001.40
2017,04,06,04,37,1001.30
2017,04,06,04,38,1001.30
2017,04,06,04,39,1001.30
2017,04,06,04,41,1001.20
2017,04,06,04,42,1001.20
2017,04,06,04,43,1001.20
2017,04,06,04,44,1001.20
2017,04,06,04,46,1001.30
2017,04,06,04,47,1001.30
2017,04,06,04,48,1001.30
2017,04,06,04,49,1001.20
2017,04,06,04,51,1001.30
2017,04,06,04,52,1001.30
2017,04,06,04,53,1001.30
2017,04,06,04,54,1001.30
2017,04,06,04,56,1001.30
2017,04,06,04,57,1001.30
2017,04,06,04,58,1001.40
2017,04,06,04,59,1001.50
2017,04,06,05,01,1001.50
2017,04,06,05,02,1001.50
2017,04,06,05,03,1001.50
2017,04,06,05,04,1001.50
2017,04,06,05,06,1001.30
2017,04,06,05,07,1001.30
2017,04,06,05,08,1001.30
2017,04,06,05,09,1001.30
2017,04,06,05,11,1001.30
2017,04,06,05,12,1001.30
2017,04,06,05,13,1001.30
2017,04,06,05,14,1001.30
2017,04,06,05,16,1001.40
2017,04,06,05,17,1001.40
2017,04,06,05,18,1001.40
2017,04,06,05,19,1001.40
2017,04,06,05,21,1001.30
2017,04,06,05,22,1001.30
2017,04,06,05,23,1001.30
2017,04,06,05,24,1001.30
2017,04,06,05,25,1001.30
2017,04,06,05,26,1001.30
2017,04,06,05,27,1001.30
2017,04,06,05,28,1001.30
2017,04,06,05,29,1001.30
2017,04,06,05,30,1001.30
2017,04,06,05,31,1001.30
2017,04,06,05,32,1001.20
2017,04,06,05,33,1001.20
2017,04,06,05,34,1001.20
2017,04,06,05,35,1001.20
2017,04,06,05,36,1001.30
2017,04,06,05,37,1001.30
2017,04,06,05,38,1001.30
2017,04,06,05,39,1001.30
2017,04,06,05,40,1001.30
2017,04,06,05,41,1001.30
2017,04,06,05,42,1001.30
2017,04,06,05,43,1001.20
2017,04,06,05,44,1001.20
2017,04,06,05,45,1001.20
2017,04,06,05,46,1001.20
2017,04,06,05,47,1001.20
2017,04,06,05,48,1001.20
2017,04,06,05,49,1001.20
2017,04,06,05,50,1001.20
2017,04,06,05,51,1001.20
2017,04,06,05,52,1001.20
2017,04,06,05,53,1001.20
2017,04,06,05,54,1001.20
2017,04,06,05,55,1001.20
2017,04,06,05,56,1001.20
2017,04,06,05,57,1001.30
2017,04,06,05,58,1001.30
2017,04,06,05,59,1001.30
2017,04,06,06,00,1001.20
2017,04,06,06,01,1001.30
2017,04,06,06,02,1001.30
2017,04,06,06,03,1001.30
2017,04,06,06,04,1001.30
2017,04,06,06,05,1001.20
2017,04,06,06,06,1001.20
2017,04,06,06,07,1001.20
2017,04,06,06,08,1001.20
2017,04,06,06,09,1001.20
2017,04,06,06,10,1001.20
2017,04,06,06,11,1001.20
2017,04,06,06,12,1001.20
2017,04,06,06,13,1001.20
2017,04,06,06,14,1001.20
2017,04,06,06,15,1001.20
2017,04,06,06,16,1001.20
2017,04,06,06,17,1001.10
2017,04,06,06,18,1001.10
2017,04,06,06,19,1001.10
2017,04,06,06,20,1001.10
2017,04,06,06,21,1001.00
2017,04,06,06,22,1001.00
2017,04,06,06,23,1000.90
2017,04,06,06,24,1000.90
2017,04,06,06,25,1000.80
2017,04,06,06,26,1000.70
2017,04,06,06,27,1000.70
2017,04,06,06,28,1000.80
2017,04,06,06,29,1000.80
2017,04,06,06,30,1000.80
2017,04,06,06,31,1000.80
2017,04,06,06,32,1000.70
2017,04,06,06,33,1000.70
2017,04,06,06,34,1000.70
2017,04,06,06,35,1000.70
2017,04,06,06,36,1000.70
2017,04,06,06,37,1000.70
2017,04,06,06,38,1000.70
2017,04,06,06,39,1000.70
2017,04,06,06,40,1000.70
2017,04,06,06,41,1000.70
2017,04,06,06,42,1000.70
2017,04,06,06,44,1000.70
2017,04,06,06,46,1000.70
2017,04,06,06,47,1000.70
2017,04,06,06,48,1000.70
2017,04,06,06,49,1000.70
2017,04,06,06,51,1000.70
2017,04,06,06,52,1000.70
2017,04,06,06,53,1000.70
2017,04,06,06,54,1000.70
2017,04,06,06,56,1000.70
2017,04,06,06,57,1000.60
2017,04,06,06,58,1000.50
2017,04,06,06,59,1000.50
2017,04,06,07,01,1000.30
2017,04,06,07,02,1000.20
2017,04,06,07,03,1000.20
2017,04,06,07,04,1000.20
2017,04,06,07,06,1000.20
2017,04,06,07,07,1000.20
2017,04,06,07,08,1000.20
2017,04,06,07,09,1000.20
2017,04,06,07,11,1000.20
2017,04,06,07,12,1000.20
2017,04,06,07,13,1000.20
2017,04,06,07,14,1000.20
2017,04,06,07,16,1000.20
2017,04,06,07,17,1000.20
2017,04,06,07,18,1000.20
2017,04,06,07,19,1000.20
2017,04,06,07,21,1000.20
2017,04,06,07,22,1000.10
2017,04,06,07,23,1000.10
2017,04,06,07,24,1000.10
2017,04,06,07,26,1000.00
2017,04,06,07,27,999.90
2017,04,06,07,28,999.90
2017,04,06,07,29,999.80
2017,04,06,07,31,999.90
2017,04,06,07,32,999.90
2017,04,06,07,33,999.90
2017,04,06,07,34,999.80
2017,04,06,07,36,999.70
2017,04,06,07,37,999.70
2017,04,06,07,38,999.70
2017,04,06,07,39,999.70
2017,04,06,07,41,999.70
2017,04,06,07,42,999.70
2017,04,06,07,43,999.70
2017,04,06,07,44,999.70
2017,04,06,07,46,999.70
2017,04,06,07,47,999.70
2017,04,06,07,48,999.70
2017,04,06,07,49,999.70
2017,04,06,07,51,999.70
2017,04,06,07,52,999.70
2017,04,06,07,53,999.70
2017,04,06,07,54,999.70
2017,04,06,07,56,999.70
2017,04,06,07,57,999.80
2017,04,06,07,58,999.90
2017,04,06,07,59,999.90
2017,04,06,08,00,999.90
2017,04,06,08,01,1000.00
2017,04,06,08,02,1000.00
2017,04,06,08,03,1000.10
2017,04,06,08,04,1000.20
2017,04,06,08,06,1000.20
2017,04,06,08,07,1000.20
2017,04,06,08,08,1000.20
2017,04,06,08,09,1000.20
2017,04,06,08,10,1000.20
2017,04,06,08,11,1000.20
2017,04,06,08,12,1000.20
2017,04,06,08,13,1000.20
2017,04,06,08,14,1000.20
2017,04,06,08,15,1000.20
2017,04,06,08,16,1000.20
2017,04,06,08,17,1000.20
2017,04,06,08,18,1000.20
2017,04,06,08,19,1000.20
2017,04,06,08,20,1000.20
2017,04,06,08,21,1000.20
2017,04,06,08,22,1000.20
2017,04,06,08,23,1000.20
2017,04,06,08,24,1000.20
2017,04,06,08,25,1000.20
2017,04,06,08,26,1000.20
2017,04,06,08,27,1000.10
2017,04,06,08,28,1000.10
2017,04,06,08,29,1000.10
2017,04,06,08,30,1000.10
2017,04,06,08,31,1000.20
2017,04,06,08,32,1000.20
2017,04,06,08,33,1000.20
2017,04,06,08,34,1000.20
2017,04,06,08,35,1000.20
2017,04,06,08,36,1000.20
2017,04,06,08,37,1000.20
2017,04,06,08,38,1000.20
2017,04,06,08,39,1000.20
2017,04,06,08,40,1000.20
2017,04,06,08,41,1000.20
2017,04,06,08,42,1000.20
2017,04,06,08,43,1000.20
2017,04,06,08,44,1000.20
2017,04,06,08,45,1000.30
2017,04,06,08,46,1000.30
2017,04,06,08,47,1000.20
2017,04,06,08,48,1000.20
2017,04,06,08,49,1000.20
2017,04,06,08,50,1000.20
2017,04,06,08,51,1000.20
2017,04,06,08,52,1000.30
2017,04,06,08,53,1000.30
2017,04,06,08,54,1000.30
2017,04,06,08,55,1000.30
2017,04,06,08,56,1000.30
2017,04,06,08,57,1000.30
2017,04,06,08,58,1000.30
2017,04,06,08,59,1000.30
2017,04,06,09,00,1000.40
2017,04,06,09,01,1000.40
2017,04,06,09,02,1000.40
2017,04,06,09,03,1000.50
2017,04,06,09,04,1000.50
2017,04,06,09,05,1000.60
2017,04,06,09,06,1000.60
2017,04,06,09,07,1000.70
2017,04,06,09,08,1000.70
2017,04,06,09,09,1000.70
2017,04,06,09,10,1000.60
2017,04,06,09,11,1000.60
2017,04,06,09,12,1000.60
2017,04,06,09,13,1000.60
2017,04,06,09,14,1000.60
2017,04,06,09,15,1000.70
2017,04,06,09,16,1000.70
2017,04,06,09,18,1000.70
2017,04,06,09,19,1000.70
2017,04,06,09,21,1000.70
2017,04,06,09,22,1000.60
2017,04,06,09,23,1000.70
2017,04,06,09,24,1000.70
2017,04,06,09,26,1000.60
2017,04,06,09,27,1000.60
2017,04,06,09,28,1000.60
2017,04,06,09,29,1000.60
2017,04,06,09,31,1000.60
2017,04,06,09,32,1000.60
2017,04,06,09,33,1000.60
2017,04,06,09,34,1000.60
2017,04,06,09,36,1000.60
2017,04,06,09,37,1000.60
2017,04,06,09,38,1000.60
2017,04,06,09,39,1000.70
2017,04,06,09,41,1000.70
2017,04,06,09,42,1000.70
2017,04,06,09,43,1000.70
2017,04,06,09,44,1000.70
2017,04,06,09,46,1000.70
2017,04,06,09,47,1000.70
2017,04,06,09,48,1000.70
2017,04,06,09,49,1000.70
2017,04,06,09,51,1000.80
2017,04,06,09,52,1000.90
2017,04,06,09,53,1000.90
2017,04,06,09,54,1001.00
2017,04,06,09,56,1001.10
2017,04,06,09,57,1001.10
2017,04,06,09,58,1001.10
2017,04,06,09,59,1001.10
2017,04,06,10,01,1001.00
2017,04,06,10,02,1001.00
2017,04,06,10,03,1001.00
2017,04,06,10,04,1001.10
2017,04,06,10,06,1001.20
2017,04,06,10,07,1001.20
2017,04,06,10,08,1001.20
2017,04,06,10,09,1001.20
2017,04,06,10,11,1001.20
2017,04,06,10,12,1001.20
2017,04,06,10,13,1001.20
2017,04,06,10,14,1001.30
2017,04,06,10,16,1001.30
2017,04,06,10,17,1001.30
2017,04,06,10,18,1001.30
2017,04,06,10,19,1001.30
2017,04,06,10,21,1001.40
2017,04,06,10,22,1001.60
2017,04,06,10,23,1001.60
2017,04,06,10,24,1001.70
2017,04,06,10,26,1001.70
2017,04,06,10,27,1001.70
2017,04,06,10,28,1001.70
2017,04,06,10,29,1001.70
2017,04,06,10,31,1001.70
2017,04,06,10,32,1001.70
2017,04,06,10,33,1001.80
2017,04,06,10,34,1001.80
2017,04,06,10,36,1001.80
2017,04,06,10,37,1001.80
2017,04,06,10,38,1001.70
2017,04,06,10,39,1001.70
2017,04,06,10,41,1001.70
2017,04,06,10,42,1001.70
2017,04,06,10,43,1001.70
2017,04,06,10,44,1001.70
2017,04,06,10,46,1001.70
2017,04,06,10,47,1001.70
2017,04,06,10,48,1001.80
2017,04,06,10,49,1001.80
2017,04,06,10,50,1001.80
2017,04,06,10,51,1001.80
2017,04,06,10,52,1001.80
2017,04,06,10,53,1001.80
2017,04,06,10,54,1001.80
2017,04,06,10,55,1001.80
2017,04,06,10,56,1001.80
2017,04,06,10,57,1001.80
2017,04,06,10,58,1001.80
2017,04,06,10,59,1001.80
2017,04,06,11,00,1001.80
2017,04,06,11,01,1001.80
2017,04,06,11,02,1001.80
2017,04,06,11,03,1001.80
2017,04,06,11,04,1001.80
2017,04,06,11,05,1001.80
2017,04,06,11,06,1001.80
2017,04,06,11,07,1001.80
2017,04,06,11,08,1001.80
2017,04,06,11,09,1001.80
2017,04,06,11,10,1001.80
2017,04,06,11,11,1001.80
2017,04,06,11,12,1001.80
2017,04,06,11,13,1001.80
2017,04,06,11,14,1001.80
2017,04,06,11,15,1001.80
2017,04,06,11,16,1001.80
2017,04,06,11,17,1001.80
2017,04,06,11,18,1001.80
2017,04,06,11,19,1001.80
2017,04,06,11,20,1001.80
2017,04,06,11,21,1001.80
2017,04,06,11,22,1001.90
2017,04,06,11,23,1001.90
2017,04,06,11,24,1001.90
2017,04,06,11,25,1001.90
2017,04,06,11,26,1001.90
2017,04,06,11,27,1001.90
2017,04,06,11,28,1001.90
2017,04,06,11,29,1001.90
2017,04,06,11,30,1001.90
2017,04,06,11,31,1001.90
2017,04,06,11,32,1001.90
2017,04,06,11,33,1001.90
2017,04,06,11,34,1001.90
2017,04,06,11,35,1001.90
2017,04,06,11,36,1002.00
2017,04,06,11,37,1002.00
2017,04,06,11,38,1001.90
2017,04,06,11,39,1001.90
2017,04,06,11,40,1002.00
2017,04,06,11,41,1001.90
2017,04,06,11,42,1002.00
2017,04,06,11,43,1001.90
2017,04,06,11,44,1002.00
2017,04,06,11,45,1002.00
2017,04,06,11,46,1002.10
2017,04,06,11,47,1002.10
2017,04,06,11,48,1002.00
2017,04,06,11,49,1002.00
2017,04,06,11,50,1002.00
2017,04,06,11,51,1002.00
2017,04,06,11,52,1002.00
2017,04,06,11,53,1002.00
2017,04,06,11,54,1002.00
2017,04,06,11,55,1002.00
2017,04,06,11,56,1002.00
2017,04,06,11,57,1002.10
2017,04,06,11,58,1002.10
2017,04,06,11,59,1002.10
2017,04,06,12,00,1002.10
2017,04,06,12,01,1002.00
2017,04,06,12,02,1002.00
2017,04,06,12,03,1002.00
2017,04,06,12,04,1002.10
2017,04,06,12,05,1002.10
2017,04,06,12,06,1002.10
2017,04,06,12,07,1002.10
2017,04,06,12,08,1002.10
2017,04,06,12,09,1002.10
2017,04,06,12,11,1002.10
2017,04,06,12,12,1002.10
2017,04,06,12,13,1002.10
2017,04,06,12,14,1002.10
2017,04,06,12,16,1002.10
2017,04,06,12,17,1002.00
2017,04,06,12,18,1002.10
2017,04,06,12,19,1002.10
2017,04,06,12,21,1002.10
2017,04,06,12,22,1002.10
2017,04,06,12,23,1002.10
2017,04,06,12,24,1002.10
2017,04,06,12,26,1002.20
2017,04,06,12,27,1002.20
2017,04,06,12,28,1002.20
2017,04,06,12,29,1002.20
2017,04,06,12,31,1002.30
2017,04,06,12,32,1002.30
2017,04,06,12,33,1002.30
2017,04,06,12,34,1002.30
2017,04,06,12,36,1002.30
2017,04,06,12,37,1002.30
2017,04,06,12,38,1002.30
2017,04,06,12,39,1002.30
2017,04,06,12,41,1002.30
2017,04,06,12,42,1002.30
2017,04,06,12,43,1002.30
2017,04,06,12,44,1002.30
2017,04,06,12,46,1002.30
2017,04,06,12,47,1002.30
2017,04,06,12,48,1002.30
2017,04,06,12,49,1002.30
2017,04,06,12,51,1002.40
2017,04,06,12,52,1002.40
2017,04,06,12,53,1002.40
2017,04,06,12,54,1002.40
2017,04,06,12,56,1002.30
2017,04,06,12,57,1002.30
2017,04,06,12,58,1002.30
2017,04,06,12,59,1002.30
2017,04,06,13,01,1002.30
2017,04,06,13,02,1002.30
2017,04,06,13,03,1002.30
2017,04,06,13,04,1002.30
2017,04,06,13,06,1002.30
2017,04,06,13,07,1002.30
2017,04,06,13,08,1002.30
2017,04,06,13,09,1002.30
2017,04,06,13,11,1002.30
2017,04,06,13,12,1002.30
2017,04,06,13,13,1002.30
2017,04,06,13,14,1002.40
2017,04,06,13,16,1002.40
2017,04,06,13,17,1002.40
2017,04,06,13,18,1002.40
2017,04,06,13,19,1002.40
2017,04,06,13,21,1002.30
2017,04,06,13,22,1002.30
2017,04,06,13,23,1002.30
2017,04,06,14,09,1002.80
2017,04,06,14,11,1002.80
2017,04,06,14,12,1002.80
2017,04,06,14,13,1002.80
2017,04,06,14,14,1002.80
2017,04,06,14,16,1002.80
2017,04,06,14,17,1002.80
2017,04,06,14,18,1002.80
2017,04,06,14,19,1002.80
2017,04,06,14,21,1002.80
2017,04,06,14,22,1002.80
2017,04,06,14,23,1002.80
2017,04,06,14,24,1002.80
2017,04,06,14,26,1002.80
2017,04,06,14,27,1002.80
2017,04,06,14,28,1002.80
2017,04,06,14,29,1002.70
2017,04,06,14,31,1002.80
2017,04,06,14,32,1002.80
2017,04,06,14,33,1002.80
2017,04,06,14,34,1002.70
2017,04,06,14,36,1002.60
2017,04,06,14,37,1002.60
2017,04,06,14,38,1002.60
2017,04,06,14,39,1002.60
2017,04,06,14,41,1002.50
2017,04,06,14,42,1002.50
2017,04,06,14,43,1002.40
2017,04,06,14,44,1002.40
2017,04,06,14,45,1002.40
2017,04,06,14,46,1002.30
2017,04,06,14,47,1002.30
2017,04,06,14,48,1002.30
2017,04,06,14,49,1002.30
2017,04,06,14,50,1002.30
2017,04,06,14,51,1002.40
2017,04,06,14,52,1002.40
2017,04,06,14,53,1002.30
2017,04,06,14,54,1002.40
2017,04,06,14,55,1002.30
2017,04,06,14,56,1002.30
2017,04,06,14,57,1002.30
2017,04,06,14,58,1002.30
2017,04,06,14,59,1002.30
2017,04,06,15,00,1002.30
2017,04,06,15,01,1002.30
2017,04,06,15,02,1002.30
2017,04,06,15,03,1002.30
2017,04,06,15,04,1002.30
2017,04,06,15,05,1002.30
2017,04,06,15,06,1002.30
2017,04,06,15,07,1002.30
2017,04,06,15,08,1002.30
2017,04,06,15,09,1002.30
2017,04,06,15,10,1002.30
2017,04,06,15,11,1002.40
2017,04,06,15,12,1002.40
2017,04,06,15,13,1002.40
2017,04,06,15,14,1002.30
2017,04,06,15,15,1002.30
2017,04,06,15,16,1002.30
2017,04,06,15,17,1002.30
2017,04,06,15,18,1002.30
2017,04,06,15,19,1002.30
2017,04,06,15,20,1002.30
2017,04,06,15,21,1002.30
2017,04,06,15,22,1002.30
2017,04,06,15,23,1002.30
2017,04,06,15,24,1002.30
2017,04,06,15,25,1002.30
2017,04,06,15,26,1002.20
2017,04,06,15,27,1002.20
2017,04,06,15,28,1002.20
2017,04,06,15,29,1002.20
2017,04,06,15,30,1002.20
2017,04,06,15,31,1002.20
2017,04,06,15,32,1002.20
2017,04,06,15,33,1002.30
2017,04,06,15,34,1002.30
2017,04,06,15,35,1002.20
2017,04,06,15,36,1002.20
2017,04,06,15,37,1002.20
2017,04,06,15,38,1002.20
2017,04,06,15,39,1002.20
2017,04,06,15,40,1002.20
2017,04,06,15,41,1002.20
2017,04,06,15,42,1002.20
2017,04,06,15,43,1002.20
2017,04,06,15,44,1002.20
2017,04,06,15,45,1002.20
2017,04,06,15,46,1002.20
2017,04,06,15,47,1002.20
2017,04,06,15,48,1002.10
2017,04,06,15,49,1002.20
2017,04,06,15,50,1002.10
2017,04,06,15,51,1002.10
2017,04,06,15,52,1002.10
2017,04,06,15,53,1002.10
2017,04,06,15,54,1002.10
2017,04,06,15,55,1002.00
2017,04,06,15,56,1002.00
2017,04,06,15,57,1001.90
2017,04,06,15,58,1001.90
2017,04,06,15,59,1001.90
2017,04,06,16,00,1001.90
2017,04,06,16,01,1001.90
2017,04,06,16,02,1001.90
2017,04,06,16,03,1002.00
2017,04,06,16,04,1002.00
2017,04,06,16,05,1002.00
2017,04,06,16,06,1002.00
2017,04,06,16,07,1001.90
2017,04,06,16,08,1001.90
2017,04,06,16,09,1001.90
2017,04,06,16,10,1001.90
2017,04,06,16,11,1001.80
2017,04,06,16,12,1001.90
2017,04,06,16,13,1001.90
2017,04,06,16,14,1001.90
2017,04,06,16,16,1001.90
2017,04,06,16,17,1001.90
2017,04,06,16,18,1001.90
2017,04,06,16,19,1001.90
2017,04,06,16,21,1001.90
2017,04,06,16,22,1001.90
2017,04,06,16,23,1001.90
2017,04,06,16,24,1001.90
2017,04,06,16,26,1001.90
2017,04,06,16,27,1001.90
2017,04,06,16,28,1001.90
2017,04,06,16,29,1001.80
2017,04,06,16,31,1001.80
2017,04,06,16,32,1001.80
2017,04,06,16,33,1001.80
2017,04,06,16,34,1001.80
2017,04,06,16,36,1001.80
2017,04,06,16,37,1001.80
2017,04,06,16,38,1001.70
2017,04,06,16,39,1001.70
2017,04,06,16,41,1001.70
2017,04,06,16,42,1001.70
2017,04,06,16,43,1001.70
2017,04,06,16,44,1001.70
2017,04,06,16,46,1001.70
2017,04,06,16,47,1001.70
2017,04,06,16,48,1001.70
2017,04,06,16,49,1001.60
2017,04,06,16,51,1001.50
2017,04,06,16,52,1001.40
2017,04,06,16,53,1001.40
2017,04,06,16,54,1001.30
2017,04,06,16,56,1001.30
2017,04,06,16,57,1001.30
2017,04,06,16,58,1001.30
2017,04,06,16,59,1001.30
2017,04,06,17,01,1001.30
2017,04,06,17,02,1001.30
2017,04,06,17,03,1001.30
2017,04,06,17,04,1001.30
2017,04,06,17,06,1001.30
2017,04,06,17,07,1001.30
2017,04,06,17,08,1001.30
2017,04,06,17,09,1001.30
2017,04,06,17,11,1001.30
2017,04,06,17,12,1001.30
2017,04,06,17,13,1001.30
2017,04,06,17,14,1001.30
2017,04,06,17,16,1001.30
2017,04,06,17,17,1001.30
2017,04,06,17,18,1001.30
2017,04,06,17,19,1001.30
2017,04,06,17,21,1001.30
2017,04,06,17,22,1001.30
2017,04,06,17,23,1001.30
2017,04,06,17,24,1001.30
2017,04,06,17,26,1001.30
2017,04,06,17,27,1001.30
2017,04,06,17,28,1001.30
2017,04,06,17,29,1001.20
2017,04,06,17,31,1001.20
2017,04,06,17,32,1001.30
2017,04,06,17,33,1001.20
2017,04,06,17,34,1001.30
2017,04,06,17,36,1001.20
2017,04,06,17,37,1001.20
2017,04,06,17,38,1001.20
2017,04,06,17,39,1001.20
2017,04,06,17,41,1001.20
2017,04,06,17,42,1001.20
2017,04,06,17,43,1001.20
2017,04,06,17,44,1001.20
2017,04,06,17,45,1001.20
2017,04,06,17,46,1001.20
2017,04,06,17,47,1001.20
2017,04,06,17,48,1001.20
2017,04,06,17,49,1001.20
2017,04,06,17,50,1001.20
2017,04,06,17,51,1001.20
2017,04,06,17,52,1001.10
2017,04,06,17,53,1001.10
2017,04,06,17,54,1001.10
2017,04,06,17,55,1001.00
2017,04,06,17,56,1001.00
2017,04,06,17,57,1000.90
2017,04,06,17,58,1000.90
2017,04,06,17,59,1000.80
2017,04,06,18,00,1000.80
2017,04,06,18,01,1000.80
2017,04,06,18,02,1000.80
2017,04,06,18,03,1000.80
2017,04,06,18,04,1000.70
2017,04,06,18,05,1000.70
2017,04,06,18,06,1000.70
2017,04,06,18,07,1000.70
2017,04,06,18,08,1000.70
2017,04,06,18,09,1000.70
2017,04,06,18,10,1000.70
2017,04,06,18,11,1000.60
2017,04,06,18,12,1000.60
2017,04,06,18,13,1000.60
2017,04,06,18,14,1000.60
2017,04,06,18,15,1000.40
2017,04,06,18,16,1000.40
2017,04,06,18,17,1000.30
2017,04,06,18,18,1000.30
2017,04,06,18,19,1000.30
2017,04,06,18,20,1000.30
2017,04,06,18,21,1000.30
2017,04,06,18,22,1000.20
2017,04,06,18,23,1000.20
2017,04,06,18,24,1000.20
2017,04,06,18,25,1000.20
2017,04,06,18,26,1000.20
2017,04,06,18,27,1000.20
2017,04,06,18,28,1000.20
2017,04,06,18,29,1000.10
2017,04,06,18,30,1000.00
2017,04,06,18,31,1000.00
2017,04,06,18,32,999.90
2017,04,06,18,33,999.80
2017,04,06,18,34,999.80
2017,04,06,18,35,999.80
2017,04,06,18,36,999.80
2017,04,06,18,37,999.70
2017,04,06,18,38,999.80
2017,04,06,18,39,999.80
2017,04,06,18,40,999.80
2017,04,06,18,41,999.80
2017,04,06,18,42,999.80
2017,04,06,18,43,999.80
2017,04,06,18,44,999.80
2017,04,06,18,45,999.90
2017,04,06,18,46,999.90
2017,04,06,18,47,999.90
2017,04,06,18,48,999.90
2017,04,06,18,49,1000.00
2017,04,06,18,50,1000.00
2017,04,06,18,51,999.90
2017,04,06,18,52,999.90
2017,04,06,18,53,999.90
2017,04,06,18,54,999.80
2017,04,06,18,55,999.80
2017,04,06,18,56,999.80
2017,04,06,18,57,999.80
2017,04,06,18,58,999.80
2017,04,06,18,59,999.80
2017,04,06,19,00,999.80
2017,04,06,19,01,999.80
2017,04,06,19,03,999.70
2017,04,06,19,04,999.70
2017,04,06,19,06,999.70
2017,04,06,19,07,999.70
2017,04,06,19,08,999.70
2017,04,06,19,09,999.70
2017,04,06,19,11,999.70
2017,04,06,19,12,999.70
2017,04,06,19,13,999.60
2017,04,06,19,14,999.60
2017,04,06,19,16,999.50
2017,04,06,19,17,999.40
2017,04,06,19,18,999.40
2017,04,06,19,19,999.40
2017,04,06,19,21,999.30
2017,04,06,19,22,999.20
2017,04,06,19,23,999.20
2017,04,06,19,24,999.20
2017,04,06,19,26,999.20
2017,04,06,19,27,999.20
2017,04,06,19,28,999.20
2017,04,06,19,29,999.10
2017,04,06,19,31,999.10
2017,04,06,19,32,999.10
2017,04,06,19,33,999.10
2017,04,06,19,34,999.10
2017,04,06,19,36,999.10
2017,04,06,19,37,999.10
2017,04,06,19,38,999.10
2017,04,06,19,39,999.10
2017,04,06,19,41,999.00
2017,04,06,19,42,999.10
2017,04,06,19,43,999.00
2017,04,06,19,44,999.00
2017,04,06,19,46,999.00
2017,04,06,19,47,999.00
2017,04,06,19,48,998.90
2017,04,06,19,49,998.90
2017,04,06,19,51,998.80
2017,04,06,19,52,998.80
2017,04,06,19,53,998.80
2017,04,06,19,54,998.80
2017,04,06,19,56,998.70
2017,04,06,19,57,998.70
2017,04,06,19,58,998.70
2017,04,06,19,59,998.70
2017,04,06,20,01,998.60
2017,04,06,20,02,998.60
2017,04,06,20,03,998.60
2017,04,06,20,04,998.60
2017,04,06,20,06,998.50
2017,04,06,20,07,998.50
2017,04,06,20,08,998.40
2017,04,06,20,09,998.40
2017,04,06,20,11,998.30
2017,04,06,20,12,998.30
2017,04,06,20,13,998.20
2017,04,06,20,14,998.20
2017,04,06,20,16,998.20
2017,04,06,20,17,998.10
2017,04,06,20,18,998.10
2017,04,06,20,19,998.10
2017,04,06,20,21,998.10
2017,04,06,20,22,998.10
2017,04,06,20,23,998.10
2017,04,06,20,24,998.00
2017,04,06,20,25,998.00
2017,04,06,20,26,998.00
2017,04,06,20,27,997.90
2017,04,06,20,28,997.90
2017,04,06,20,29,997.80
2017,04,06,20,30,997.70
2017,04,06,20,31,997.70
2017,04,06,20,32,997.60
2017,04,06,20,33,997.60
2017,04,06,20,34,997.60
2017,04,06,20,35,997.60
2017,04,06,20,36,997.50
2017,04,06,20,37,997.40
2017,04,06,20,38,997.30
2017,04,06,20,39,997.20
2017,04,06,20,40,997.10